Regional Weather Roundup
Issued by NWS

Home | Current Version | Previous Version | Text Only | Print | Product List | Glossary Off
Versions: 1 2 3 4 5 6 7 8 9 10 11 12 13 14 15 16 17 18 19 20 21 22 23 24 25 26 27 28 29 30 31 32 33 34 35 36 37 38 39 40 41 42 43 44 45 46 47 48 49 50

000
ASUS43 KOAX 140510
RWRNE

WEATHER ROUNDUP FOR NEBRASKA
NATIONAL WEATHER SERVICE OMAHA NE
1100 PM CST WED DEC 13 2017

NOTES: SATELLITE DATA IS BEING USED TO AUGMENT CLOUD COVER ABOVE
       12000 FEET.
       "FAIR" INDICATES FEW OR NO CLOUDS BELOW 12,000 FEET WITH NO
       SIGNIFICANT WEATHER AND/OR OBSTRUCTIONS TO VISIBILITY.


NEZ001>004-019>022-054>056-140600-
NEBRASKA PANHANDLE

CITY           SKY/WX    TMP DP  RH WIND       PRES   REMARKS
SCOTTSBLUFF    CLOUDY    38  24  57 N25G32    30.15R WCI  27
ALLIANCE       CLOUDY    34  23  64 NW7       30.11R WCI  28
CHADRON        CLOUDY    35  22  58 W5        30.12R WCI  31
GORDON         CLOUDY    35  24  64 NW8       30.08R WCI  29
KIMBALL        CLOUDY    36  17  46 N15       30.13R WCI  27
SIDNEY         CLOUDY    37  18  46 N16       30.11R WCI  28
$$

NEZ057>060-069>072-079>082-140600-
SOUTHWEST NEBRASKA

CITY           SKY/WX    TMP DP  RH WIND       PRES   REMARKS
NORTH PLATTE   CLOUDY    37  24  59 NW8       30.08R WCI  31
IMPERIAL       CLOUDY    37  20  50 N9        30.10R WCI  30
LEXINGTON      CLOUDY    36  24  62 NW8       30.04R WCI  29
MCCOOK         CLOUDY    38  23  55 NW12      30.08R WCI  30
OGALLALA       CLOUDY    40  23  49 N9        30.10R WCI  34
$$

NEZ005>010-023>029-035>040-094-140600-
NORTH CENTRAL NEBRASKA

CITY           SKY/WX    TMP DP  RH WIND       PRES   REMARKS
VALENTINE      CLOUDY    37  21  52 NW10      30.05R WCI  30
AINSWORTH      CLOUDY    31  27  83 NW3       30.05R
BROKEN BOW     PTCLDY    38  22  52 N10       30.02R WCI  31
O`NEILL        CLOUDY    33  27  76 NW10      30.03R WCI  25
ORD            CLOUDY    34  26  72 NW8       30.03R WCI  27
THEDFORD       CLOUDY    38  22  53 NW13G18   30.05S WCI  30
$$

NEZ041-046>049-061>064-073>077-083>087-140600-
SOUTH CENTRAL NEBRASKA

CITY           SKY/WX    TMP DP  RH WIND       PRES   REMARKS
GRAND ISLAND   PTCLDY    32  26  78 N10       30.04R WCI  24
AURORA         CLOUDY    33  26  76 N9        30.02R WCI  25
HASTINGS       CLOUDY    31  23  72 N6        30.02R WCI  25
HEBRON         PTCLDY    35  27  72 CALM      30.03R
HOLDREGE       PTCLDY    38  25  59 NW10      30.02R WCI  31
KEARNEY        CLOUDY    34  23  64 N10       30.04R WCI  26
YORK           MOCLDY    32  27  80 CALM      30.02R
$$

NEZ011>018-030>034-042>045-140600-
NORTHEAST NEBRASKA

CITY           SKY/WX    TMP DP  RH WIND       PRES   REMARKS
NORFOLK        CLOUDY    36  26  67 NW13      29.99R WCI  27
ALBION         CLOUDY    35  27  71 N7        30.02R WCI  29
BLAIR          CLOUDY    38  29  71 N8        29.97R WCI  32
COLUMBUS       CLOUDY    37  25  61 N12       30.02R WCI  29
FREMONT        CLOUDY    38  26  61 NW14      30.00R WCI  30
TEKAMAH        CLOUDY    38  26  62 N15       29.99R WCI  29
WAYNE          CLOUDY    36  24  62 N15G24    29.99R WCI  27
$$

NEZ050>053-065>068-078-088>093-140600-
SOUTHEAST NEBRASKA

CITY           SKY/WX    TMP DP  RH WIND       PRES   REMARKS
LINCOLN        CLOUDY    39  25  57 N18       30.02R WCI  30
OMAHA EPPLEY   CLOUDY    39  26  59 N15       29.98R WCI  31
BEATRICE       MOCLDY    31  26  83 NW7       30.00R WCI  24
FALLS CITY     CLOUDY    38  27  64 NW7       29.97R WCI  33
NEBRASKA CITY  CLOUDY    39  27  62 N14       29.98R WCI  31
PLATTSMOUTH    CLOUDY    39  28  63 N9        29.97R WCI  33
$$

NEZ044-045-051>053-067-140600-
OMAHA AREA

CITY           SKY/WX    TMP DP  RH WIND       PRES   REMARKS
OMAHA EPPLEY   CLOUDY    39  26  59 N15       29.98R WCI  31
BLAIR          CLOUDY    38  29  71 N8        29.97R WCI  32
FREMONT        CLOUDY    38  26  61 NW14      30.00R WCI  30
MILLARD        CLOUDY    41  28  60 N7        29.98R
OFFUTT AFB     CLOUDY    39  26  59 N16G22    29.97R WCI  31
PLATTSMOUTH    CLOUDY    39  28  63 N9        29.97R WCI  33
WAHOO          CLOUDY    38  25  58 N14G20    30.00R WCI  30
$$




USA.gov is the U.S. government's official web portal to all federal, state and local government web resources and services.